User: anonymous   Login
Location: Newark
(13.8625°N, 100.5144°E)
Time: 02:38:39
(UTC+00:00)
Language:

XW-2D - Orbit

View from above orbital plane
View from above orbital plane
View from above satellite
View from above satellite

Ground track
Ground track

The orbit data is extracted from the following two-line orbital elements,

1 40907U 15049J   21206.75875282  .00001504  00000-0  78977-4 0  9996
2 40907  97.4849 208.4411 0015300  55.5139 117.2933 15.17161218323401
Epoch (UTC): 25 July 2021 18:12:36
Eccentricity: 0.0015300
inclination: 97.4849°
perigee height: 504 km
apogee height: 525 km
right ascension of ascending node: 208.4411°
argument of perigee: 55.5139°
revolutions per day: 15.17161218
mean anomaly at epoch: 117.2933°
orbit number at epoch: 32340

The dashed part of the orbit path shows where the satellite is in the earth's shadow,  

DLR